OE6JWD-11 Weather Reports


time (UTC)temp
C
wind
direction
speed
KPH
gust
KPH
rain 1hr
cm
rain 24hr
cm
rain mn
cm
humidity
%
barometer
mb
20210723154004 23 0 0.0 4.8 0.00 0.00 0.00 72 1017.5
20210723153004 22 325 1.6 4.8 0.00 0.00 0.00 72 1017.6
20210723152003 20 0 0.0 3.2 0.00 0.00 0.00 79 1017.7
20210723151003 21 0 0.0 3.2 0.00 0.00 0.00 79 1017.8
20210723150004 21 0 0.0 4.8 0.00 0.00 0.00 80 1017.8
20210723145004 21 0 0.0 6.4 0.00 0.00 0.00 79 1018.0
20210723144004 22 0 0.0 4.8 0.00 0.00 0.00 76 1017.8
20210723143004 24 189 3.2 6.4 0.00 0.00 0.00 73 1017.6
20210723142004 25 213 1.6 11.3 0.00 0.00 0.00 61 1017.7
20210723141004 24 204 6.4 9.7 0.00 0.00 0.00 62 1017.8
20210723140003 23 245 3.2 12.9 0.00 0.00 0.00 67 1017.4
20210723135005 22 215 1.6 11.3 0.00 0.00 0.00 71 1017.7
20210723134003 21 201 4.8 12.9 0.00 0.00 0.00 73 1017.3
20210723133003 22 188 3.2 12.9 0.00 0.00 0.00 71 1017.2
20210723132003 22 196 4.8 16.1 0.00 0.00 0.00 68 1017.5
20210723131004 22 240 3.2 20.9 0.00 0.00 0.00 65 1017.6
20210723130004 22 200 11.3 20.9 0.00 0.00 0.00 65 1017.2
20210723125004 24 234 8.0 25.7 0.00 0.00 0.00 62 1017.3
20210723124004 24 174 8.0 25.7 0.00 0.00 0.00 62 1017.3
20210723123005 25 209 9.7 25.7 0.00 0.00 0.00 58 1017.6
20210723122004 26 208 6.4 12.9 0.00 0.00 0.00 56 1017.4
20210723121003 25 185 1.6 12.9 0.00 0.00 0.00 52 1017.6
20210723120003 25 178 3.2 14.5 0.00 0.00 0.00 57 1018.1
20210723115003 24 0 0.0 6.4 0.00 0.00 0.00 58 1017.7
20210723114004 25 163 1.6 9.7 0.00 0.00 0.00 53 1017.8
20210723113004 25 209 1.6 9.7 0.00 0.00 0.00 59 1017.7
20210723112004 25 212 3.2 8.0 0.00 0.00 0.00 61 1017.6
20210723111004 26 195 3.2 8.0 0.00 0.00 0.00 58 1017.6
20210723110004 25 0 0.0 8.0 0.00 0.00 0.00 56 1017.9
20210723105003 26 183 4.8 11.3 0.00 0.00 0.00 53 1018.1
20210723104003 25 214 3.2 8.0 0.00 0.00 0.00 58 1018.2
20210723103004 25 206 3.2 9.7 0.00 0.00 0.00 56 1018.1
20210723102004 25 198 1.6 8.0 0.00 0.00 0.00 53 1018.4
20210723101004 25 181 3.2 8.0 0.00 0.00 0.00 52 1018.5
20210723100004 24 198 3.2 11.3 0.00 0.00 0.00 60 1018.7
20210723095004 24 0 0.0 9.7 0.00 0.00 0.00 56 1018.8
20210723094004 23 205 3.2 9.7 0.00 0.00 0.00 59 1018.8
20210723093004 23 171 4.8 9.7 0.00 0.00 0.00 56 1019.0
20210723092003 23 0 0.0 4.8 0.00 0.00 0.00 61 1019.0
20210723091003 23 0 0.0 9.7 0.00 0.00 0.00 56 1019.1
20210723090003 22 0 0.0 8.0 0.00 0.00 0.00 57 1019.1
20210723085004 23 206 3.2 12.9 0.00 0.00 0.00 57 1019.3
20210723084004 22 0 0.0 6.4 0.00 0.00 0.00 55 1019.3
20210723083004 22 0 0.0 6.4 0.00 0.00 0.00 61 1019.0
20210723082003 22 212 3.2 6.4 0.00 0.00 0.00 55 1019.2
20210723081004 22 177 1.6 8.0 0.00 0.00 0.00 55 1019.2
20210723080003 22 0 0.0 8.0 0.00 0.00 0.00 54 1018.9
20210723075004 21 0 0.0 6.4 0.00 0.00 0.00 56 1019.1
20210723074004 21 177 1.6 3.2 0.00 0.00 0.00 56 1019.1
20210723073004 21 0 0.0 6.4 0.00 0.00 0.00 55 1019.3
20210723072004 22 0 0.0 3.2 0.00 0.00 0.00 55 1019.0
20210723071004 21 0 0.0 4.8 0.00 0.00 0.00 57 1019.2
20210723070004 21 0 0.0 3.2 0.00 0.00 0.00 62 1019.2
20210723065003 20 0 0.0 4.8 0.00 0.00 0.00 66 1019.2
20210723064003 19 0 0.0 3.2 0.00 0.00 0.00 65 1019.1
20210723063003 19 182 1.6 3.2 0.00 0.00 0.00 66 1019.1
20210723062004 19 0 0.0 3.2 0.00 0.00 0.00 69 1019.2
20210723061004 18 0 0.0 0.0 0.00 0.00 0.00 67 1019.3
20210723060004 18 0 0.0 0.0 0.00 0.00 0.00 67 1019.2
20210723055004 17 0 0.0 0.0 0.00 0.00 0.00 69 1019.0
20210723054003 17 0 0.0 0.0 0.00 0.00 0.00 72 1019.1
20210723053003 18 0 0.0 0.0 0.00 0.00 0.00 71 1019.0
20210723052004 18 0 0.0 0.0 0.00 0.00 0.00 69 1019.2
20210723051003 17 0 0.0 0.0 0.00 0.00 0.00 70 1019.2
20210723050004 17 0 0.0 0.0 0.00 0.00 0.00 69 1019.3
20210723045004 17 0 0.0 0.0 0.00 0.00 0.00 67 1019.3
20210723044004 17 0 0.0 0.0 0.00 0.00 0.00 67 1019.2
20210723043004 17 0 0.0 0.0 0.00 0.00 0.00 66 1019.1
20210723042003 17 0 0.0 0.0 0.00 0.00 0.00 67 1019.2
20210723041004 17 0 0.0 0.0 0.00 0.00 0.00 67 1019.0
20210723040004 17 0 0.0 0.0 0.00 0.00 0.00 66 1019.1
20210723035004 17 0 0.0 0.0 0.00 0.00 0.00 67 1019.0
20210723034004 17 0 0.0 0.0 0.00 0.00 0.00 66 1019.1
20210723033004 17 0 0.0 0.0 0.00 0.00 0.00 66 1019.3
20210723032003 17 0 0.0 0.0 0.00 0.00 0.00 65 1019.3
20210723031004 17 0 0.0 0.0 0.00 0.00 0.00 64 1019.3
20210723030003 17 0 0.0 0.0 0.00 0.00 0.00 64 1019.3
20210723025003 17 0 0.0 0.0 0.00 0.00 0.00 63 1019.5
20210723024003 18 0 0.0 0.0 0.00 0.00 0.00 62 1019.3
20210723023004 18 0 0.0 0.0 0.00 0.00 0.00 61 1019.5
20210723022004 18 0 0.0 0.0 0.00 0.00 0.00 61 1019.1
20210723021004 18 0 0.0 0.0 0.00 0.00 0.00 61 1019.4
20210723020004 18 0 0.0 0.0 0.00 0.00 0.00 61 1019.5
20210723015004 18 0 0.0 0.0 0.00 0.00 0.00 61 1019.5
20210723014004 18 0 0.0 0.0 0.00 0.00 0.00 61 1019.5
20210723013003 18 0 0.0 0.0 0.00 0.00 0.00 60 1019.6
20210723012003 18 0 0.0 0.0 0.00 0.00 0.00 60 1019.7
20210723011003 18 0 0.0 0.0 0.00 0.00 0.00 63 1019.9
20210723010003 18 0 0.0 0.0 0.00 0.00 0.00 64 1019.7
20210723005004 18 0 0.0 0.0 0.00 0.00 0.00 61 1019.7
20210723004004 18 0 0.0 0.0 0.00 0.00 0.00 61 1019.8
20210723003004 18 0 0.0 0.0 0.00 0.00 0.00 61 1019.8
20210723002004 18 0 0.0 0.0 0.00 0.00 0.00 62 1019.8
20210723001003 18 0 0.0 0.0 0.00 0.00 0.00 63 1019.9
20210723000004 18 0 0.0 3.2 0.00 0.00 0.00 62 1020.1
20210722235003 18 0 0.0 3.2 0.00 0.00 0.00 65 1020.2
20210722234004 18 0 0.0 3.2 0.00 0.00 0.00 65 1020.2
20210722233004 18 0 0.0 3.2 0.00 0.00 0.00 64 1020.1
20210722232004 18 0 0.0 0.0 0.00 0.00 0.00 65 1020.3
20210722231004 18 0 0.0 0.0 0.00 0.00 0.00 66 1020.0
20210722230004 18 0 0.0 0.0 0.00 0.00 0.00 66 1020.2
20210722225003 18 0 0.0 0.0 0.00 0.00 0.00 65 1020.0
20210722224004 18 0 0.0 0.0 0.00 0.00 0.00 67 1020.0
20210722223004 18 0 0.0 0.0 0.00 0.00 0.00 67 1020.2
20210722222004 18 0 0.0 0.0 0.00 0.00 0.00 70 1020.1
20210722221003 18 0 0.0 0.0 0.00 0.00 0.00 71 1020.2
20210722220003 18 0 0.0 0.0 0.00 0.00 0.00 70 1020.0
20210722215003 18 0 0.0 0.0 0.00 0.00 0.00 71 1020.0
20210722214004 18 0 0.0 0.0 0.00 0.00 0.00 70 1020.3
20210722213004 18 0 0.0 0.0 0.00 0.00 0.00 70 1020.2
20210722212003 18 0 0.0 0.0 0.00 0.00 0.00 71 1020.1
20210722211003 18 0 0.0 0.0 0.00 0.00 0.00 72 1020.1
20210722210003 18 0 0.0 0.0 0.00 0.00 0.00 72 1020.3
20210722205003 18 0 0.0 0.0 0.00 0.00 0.00 72 1020.2
20210722204003 18 0 0.0 0.0 0.00 0.00 0.00 72 1020.3
20210722203004 18 0 0.0 0.0 0.00 0.00 0.00 72 1020.2
20210722202004 18 0 0.0 0.0 0.00 0.00 0.00 72 1020.2
20210722201004 18 0 0.0 0.0 0.00 0.00 0.00 72 1020.0
20210722200004 19 0 0.0 0.0 0.00 0.00 0.00 72 1020.2
20210722195003 19 0 0.0 0.0 0.00 0.00 0.00 73 1020.0
20210722194003 19 0 0.0 0.0 0.00 0.00 0.00 74 1020.0
20210722193003 20 0 0.0 0.0 0.00 0.00 0.00 72 1020.0
20210722192003 20 0 0.0 0.0 0.00 0.00 0.00 71 1019.8
20210722191003 20 0 0.0 0.0 0.00 0.00 0.00 67 1019.6
20210722190004 21 0 0.0 0.0 0.00 0.00 0.00 66 1019.8
20210722185004 21 0 0.0 0.0 0.00 0.00 0.00 66 1019.7
20210722184004 21 0 0.0 0.0 0.00 0.00 0.00 67 1019.7
20210722183003 21 0 0.0 0.0 0.00 0.00 0.00 66 1019.6
20210722182005 21 0 0.0 0.0 0.00 0.00 0.00 66 1019.6
20210722181003 21 0 0.0 0.0 0.00 0.00 0.00 65 1019.8
20210722180004 22 0 0.0 0.0 0.00 0.00 0.00 63 1019.5
20210722175004 22 0 0.0 3.2 0.00 0.00 0.00 62 1019.7
20210722174003 22 0 0.0 3.2 0.00 0.00 0.00 64 1019.6
20210722173005 22 0 0.0 3.2 0.00 0.00 0.00 63 1019.6
20210722172003 22 179 1.6 4.8 0.00 0.00 0.00 62 1019.6
20210722171003 22 228 1.6 4.8 0.00 0.00 0.00 61 1019.7
20210722170004 23 0 0.0 9.7 0.00 0.00 0.00 61 1019.3
20210722165004 23 204 1.6 6.4 0.00 0.00 0.00 58 1019.6
20210722164004 25 164 3.2 4.8 0.00 0.00 0.00 53 1019.4
20210722163004 25 0 0.0 8.0 0.00 0.00 0.00 54 1019.3
20210722162003 25 205 1.6 8.0 0.00 0.00 0.00 53 1019.3
20210722161003 24 0 0.0 1.6 0.00 0.00 0.00 57 1019.3
20210722160003 24 0 0.0 4.8 0.00 0.00 0.00 55 1019.5
20210722155003 25 189 1.6 4.8 0.00 0.00 0.00 53 1019.6